Location: Boiro
(42.6475°N, 8.8834°W)
Time: 08:32:13
(UTC+02:00)

NANOSAT C BR1 - Pass Details

Date: 19 August 2022
Orbit: 582 x 600 km, 98.0° (Epoch: 25 September)

Event Time Altitude Azimuth Distance (km) Brightness Sun altitude
Rises 05:28:02 0° 4° (N) 2,838 ? -22.4°
Reaches altitude 10° 05:30:21 10° 355° (N) 1,929 ? -22.1°
Enters shadow 05:33:52 34° 299° (WNW) 976 ? -21.7°
